Location: Dackenheim
(49.5215°N, 8.1854°E)
Time: 06:43:35
(UTC+00:00)

AO-91 - Pass Details

Date: 20 March 2026
Orbit: 425 x 637 km, 97.5° (Epoch: 14 April)

Event Time Altitude Azimuth Distance (km) Brightness Sun altitude
Rises 20:59:41 0° 9° (N) 2,950 ? -30.3°
Reaches altitude 10° 21:01:57 10° 6° (N) 2,026 ? -30.6°
Enters shadow 21:04:13 28° 354° (N) 1,172 ? -30.9°
